Location: Unspecified
(51.0950°N, 12.9690°E)
Time: 11:15:53
(UTC+00:00)

ATLAS 3B R/B - Pass Details

Date: 23 May 2022
Orbit: 976 x 1218 km, 63.8° (Epoch: 20 June)

Event Time Altitude Azimuth Distance (km) Brightness Sun altitude
Rises 21:28:47 0° 316° (NW) 3,931 7.0 -15.1°
Reaches altitude 10° 21:31:24 10° 316° (NW) 3,004 6.2 -15.3°
Maximum altitude 21:38:38 86° 229° (SW) 1,176 2.9 -15.7°
Enters shadow 21:44:07 21° 141° (SE) 2,425 4.0 -16.0°
